| time (UTC) | temp C | wind direction | speed KPH | gust KPH | rain 1hr cm | rain 24hr cm | rain mn cm | humidity % | barometer mb |
| 20260504215756 | 16 | 227 | 0.0 | 0.0 | 0.00 | 0.00 | 0.00 | 55 | 1012.6 |
| 20260504214807 | 16 | 227 | 0.0 | 0.0 | 0.00 | 0.00 | 0.00 | 55 | 1012.7 |
| 20260504213759 | 16 | 227 | 0.0 | 0.0 | 0.00 | 0.00 | 0.00 | 55 | 1012.7 |
| 20260504212748 | 16 | 227 | 0.0 | 0.0 | 0.00 | 0.00 | 0.00 | 54 | 1012.7 |
| 20260504211810 | 16 | 227 | 0.0 | 0.0 | 0.00 | 0.00 | 0.00 | 54 | 1012.7 |
| 20260504210813 | 16 | 227 | 0.0 | 0.0 | 0.00 | 0.00 | 0.00 | 54 | 1012.7 |
| 20260504205822 | 16 | 227 | 0.0 | 0.0 | 0.00 | 0.00 | 0.00 | 54 | 1012.7 |
| 20260504204835 | 16 | 227 | 0.0 | 0.0 | 0.00 | 0.00 | 0.00 | 54 | 1012.7 |
| 20260504201555 | 17 | 227 | 0.0 | 0.0 | 0.00 | 0.00 | 0.00 | 53 | 1012.7 |
| 20260504200544 | 17 | 227 | 0.0 | 0.0 | 0.00 | 0.00 | 0.00 | 52 | 1012.7 |
| 20260504194434 | 17 | 227 | 0.0 | 0.0 | 0.00 | 0.00 | 0.00 | 51 | 1012.7 |
| 20260504192316 | 17 | 227 | 0.0 | 0.0 | 0.00 | 0.00 | 0.00 | 50 | 1012.7 |
| 20260504191241 | 18 | 227 | 0.0 | 0.0 | 0.00 | 0.00 | 0.00 | 49 | 1012.7 |
| 20260504190239 | 18 | 227 | 0.0 | 0.0 | 0.00 | 0.00 | 0.00 | 49 | 1012.7 |
| 20260504184045 | 18 | 227 | 0.0 | 0.0 | 0.00 | 0.00 | 0.00 | 48 | 1012.8 |
| 20260504183053 | 18 | 227 | 0.0 | 0.0 | 0.00 | 0.00 | 0.00 | 48 | 1012.8 |
| 20260504182056 | 18 | 210 | 0.0 | 3.2 | 0.00 | 0.00 | 0.00 | 47 | 1012.8 |
| 20260504180000 | 19 | 201 | 1.6 | 6.4 | 0.00 | 0.00 | 0.00 | 46 | 1012.8 |
| 20260504174951 | 19 | 206 | 1.6 | 9.7 | 0.00 | 0.00 | 0.00 | 45 | 1012.6 |
| 20260504174002 | 19 | 207 | 3.2 | 9.7 | 0.00 | 0.00 | 0.00 | 45 | 1012.5 |
| 20260504172949 | 20 | 205 | 1.6 | 6.4 | 0.00 | 0.00 | 0.00 | 44 | 1012.5 |
| 20260504171948 | 20 | 227 | 1.6 | 8.0 | 0.00 | 0.00 | 0.00 | 44 | 1012.4 |
| 20260504140955 | 22 | 273 | 1.6 | 11.3 | 0.00 | 0.00 | 0.00 | 35 | 1012.8 |
| 20260504110513 | 21 | 182 | 0.0 | 6.4 | 0.00 | 0.00 | 0.00 | 36 | 1014.0 |
| 20260504100454 | 20 | 237 | 1.6 | 9.7 | 0.00 | 0.00 | 0.00 | 41 | 1014.2 |
| 20260504080849 | 18 | 147 | 1.6 | 6.4 | 0.00 | 0.00 | 0.00 | 45 | 1014.5 |
| 20260504045817 | 9 | 141 | 0.0 | 0.0 | 0.00 | 0.00 | 0.00 | 64 | 1014.2 |
| 20260504044819 | 9 | 141 | 0.0 | 0.0 | 0.00 | 0.00 | 0.00 | 64 | 1014.1 |
| 20260504043744 | 9 | 141 | 0.0 | 0.0 | 0.00 | 0.00 | 0.00 | 63 | 1014.1 |
| 20260504041621 | 10 | 141 | 0.0 | 0.0 | 0.00 | 0.00 | 0.00 | 63 | 1014.1 |
| 20260504040605 | 10 | 141 | 0.0 | 0.0 | 0.00 | 0.00 | 0.00 | 63 | 1014.1 |
| 20260504034502 | 10 | 141 | 0.0 | 0.0 | 0.00 | 0.00 | 0.00 | 61 | 1014.2 |
| 20260504033434 | 10 | 141 | 0.0 | 0.0 | 0.00 | 0.00 | 0.00 | 62 | 1014.2 |
| 20260504032428 | 10 | 141 | 0.0 | 0.0 | 0.00 | 0.00 | 0.00 | 62 | 1014.2 |
| 20260504031406 | 11 | 141 | 0.0 | 0.0 | 0.00 | 0.00 | 0.00 | 61 | 1014.2 |
| 20260504025257 | 11 | 141 | 0.0 | 0.0 | 0.00 | 0.00 | 0.00 | 60 | 1014.1 |
| 20260504024223 | 11 | 141 | 0.0 | 0.0 | 0.00 | 0.00 | 0.00 | 59 | 1014.1 |
| 20260504022023 | 11 | 141 | 0.0 | 0.0 | 0.00 | 0.00 | 0.00 | 58 | 1014.1 |
| 20260504020955 | 12 | 141 | 0.0 | 0.0 | 0.00 | 0.00 | 0.00 | 57 | 1014.2 |
| 20260504015947 | 12 | 141 | 0.0 | 0.0 | 0.00 | 0.00 | 0.00 | 56 | 1014.2 |
| 20260504013910 | 12 | 141 | 0.0 | 0.0 | 0.00 | 0.00 | 0.00 | 56 | 1014.4 |
| 20260504012927 | 12 | 141 | 0.0 | 0.0 | 0.00 | 0.00 | 0.00 | 55 | 1014.3 |
| 20260504011938 | 12 | 141 | 0.0 | 0.0 | 0.00 | 0.00 | 0.00 | 55 | 1014.3 |
| 20260504005800 | 13 | 141 | 0.0 | 0.0 | 0.00 | 0.00 | 0.00 | 53 | 1014.2 |
| 20260504004751 | 13 | 141 | 0.0 | 0.0 | 0.00 | 0.00 | 0.00 | 52 | 1014.3 |
| 20260504003732 | 13 | 141 | 0.0 | 0.0 | 0.00 | 0.00 | 0.00 | 51 | 1014.3 |
| 20260504002733 | 14 | 141 | 0.0 | 0.0 | 0.00 | 0.00 | 0.00 | 51 | 1014.3 |
| 20260504001706 | 14 | 141 | 0.0 | 0.0 | 0.00 | 0.00 | 0.00 | 50 | 1014.4 |
| 20260504000649 | 15 | 141 | 0.0 | 0.0 | 0.00 | 0.00 | 0.00 | 50 | 1014.4 |
| 20260503235631 | 15 | 141 | 0.0 | 0.0 | 0.00 | 0.00 | 0.00 | 50 | 1014.3 |
| 20260503234638 | 15 | 141 | 0.0 | 0.0 | 0.00 | 0.00 | 0.00 | 47 | 1014.4 |
| 20260503233610 | 15 | 141 | 0.0 | 0.0 | 0.00 | 0.00 | 0.00 | 47 | 1014.4 |
| 20260503232629 | 15 | 141 | 0.0 | 0.0 | 0.00 | 0.00 | 0.00 | 46 | 1014.4 |
| 20260503231630 | 16 | 141 | 0.0 | 0.0 | 0.00 | 0.00 | 0.00 | 46 | 1014.4 |
| 20260503230618 | 16 | 141 | 0.0 | 0.0 | 0.00 | 0.00 | 0.00 | 45 | 1014.4 |
| 20260503225614 | 16 | 141 | 0.0 | 0.0 | 0.00 | 0.00 | 0.00 | 46 | 1014.4 |
| 20260503224633 | 16 | 141 | 0.0 | 0.0 | 0.00 | 0.00 | 0.00 | 45 | 1014.4 |
| 20260503223617 | 16 | 141 | 0.0 | 0.0 | 0.00 | 0.00 | 0.00 | 45 | 1014.4 |
| 20260503222558 | 16 | 141 | 0.0 | 0.0 | 0.00 | 0.00 | 0.00 | 45 | 1014.4 |
| 20260503221619 | 16 | 142 | 0.0 | 0.0 | 0.00 | 0.00 | 0.00 | 45 | 1014.5 |
| 20260503220633 | 16 | 141 | 0.0 | 0.0 | 0.00 | 0.00 | 0.00 | 44 | 1014.4 |